CCA2188 ZPPP-ZSQD

Flight info

Callsign CCA2188
Flight time 2h 41m
Altitude 35100
Route DADOL W144 IGNAK W179 WFX W81 APIMI W275 NSH W281 SUDGO W4 WXI W59 SUNOK W103 WFG
Aircraft A359/H-SDE2E3GHIJ3J4J5LM1ORWXY/LB1D1

Departure

Time 2026-04-26 02:06
Airport Kunming Changshui International Airport (ZPPP)

Arrival

Time 2026-04-26 04:47
Airport Qingdao Jiaodong International Airport (ZSQD)
Time Latitude Longitude Altitude Speed Heading
2026-04-26 02:01 25.11590 102.94826 6918 ft 0 kts 39°
2026-04-26 02:03 25.11590 102.94827 6918 ft 1 kts 39°
2026-04-26 02:03 25.11641 102.94871 6918 ft 14 kts 37°
2026-04-26 02:04 25.11682 102.94904 6918 ft 7 kts 36°
2026-04-26 02:04 25.11746 102.94955 6918 ft 18 kts 37°
2026-04-26 02:04 25.11827 102.95042 6918 ft 11 kts 65°
2026-04-26 02:04 25.11814 102.95136 6918 ft 14 kts 127°
2026-04-26 02:05 25.11745 102.95238 6918 ft 18 kts 126°
2026-04-26 02:05 25.11661 102.95351 6918 ft 15 kts 144°
2026-04-26 02:05 25.11561 102.95332 6918 ft 17 kts 218°
2026-04-26 02:05 25.11307 102.95110 6918 ft 81 kts 218°
2026-04-26 02:06 25.10669 102.94559 6918 ft 149 kts 218°
2026-04-26 02:06 25.09702 102.93692 6995 ft 199 kts 218°
2026-04-26 02:06 25.08561 102.92754 7641 ft 209 kts 210°
2026-04-26 02:06 25.07157 102.92260 8327 ft 223 kts 194°
2026-04-26 02:07 25.05633 102.91726 8925 ft 239 kts 208°
2026-04-26 02:07 25.04267 102.90685 9564 ft 242 kts 227°
2026-04-26 02:07 25.03305 102.89191 10275 ft 243 kts 245°
2026-04-26 02:07 25.02830 102.87415 10985 ft 244 kts 264°
2026-04-26 02:08 25.03038 102.85553 11699 ft 247 kts 280°
2026-04-26 02:08 25.03383 102.83692 12353 ft 251 kts 277°
2026-04-26 02:08 25.03681 102.81776 12726 ft 265 kts 281°
2026-04-26 02:08 25.04500 102.79890 13012 ft 290 kts 310°
2026-04-26 02:09 25.06282 102.78685 13446 ft 314 kts 341°
2026-04-26 02:09 25.08530 102.78612 13848 ft 338 kts
2026-04-26 02:09 25.10803 102.79390 14264 ft 352 kts 16°
2026-04-26 02:09 25.13185 102.80326 14562 ft 368 kts 16°
2026-04-26 02:10 25.15641 102.81278 14837 ft 383 kts 16°
2026-04-26 02:10 25.18242 102.82255 15108 ft 398 kts 15°
2026-04-26 02:10 25.20933 102.83243 15372 ft 412 kts 15°
2026-04-26 02:10 25.23669 102.84233 15624 ft 424 kts 15°
2026-04-26 02:11 25.26514 102.85253 16026 ft 432 kts 15°
2026-04-26 02:11 25.29386 102.86279 16585 ft 434 kts 15°
2026-04-26 02:11 25.32289 102.87313 17124 ft 437 kts 15°
2026-04-26 02:11 25.35187 102.88345 17623 ft 440 kts 15°
2026-04-26 02:12 25.38124 102.89387 18144 ft 443 kts 15°
2026-04-26 02:12 25.41077 102.90437 18648 ft 446 kts 15°
2026-04-26 02:12 25.44024 102.91483 19154 ft 449 kts 15°
2026-04-26 02:12 25.46997 102.92541 19651 ft 451 kts 15°
2026-04-26 02:13 25.50003 102.93610 20141 ft 454 kts 15°
2026-04-26 02:13 25.53033 102.94688 20635 ft 457 kts 15°
2026-04-26 02:13 25.56063 102.95765 21146 ft 459 kts 15°
2026-04-26 02:13 25.59122 102.96854 21630 ft 462 kts 15°
2026-04-26 02:14 25.62196 102.97950 22091 ft 464 kts 15°
2026-04-26 02:14 25.65274 102.99046 22533 ft 467 kts 15°
2026-04-26 02:14 25.68427 103.00169 22982 ft 470 kts 15°
2026-04-26 02:14 25.71547 103.01281 23422 ft 473 kts 15°
2026-04-26 02:15 25.74662 103.02392 23858 ft 475 kts 15°
2026-04-26 02:15 25.77823 103.03522 24268 ft 478 kts 15°
2026-04-26 02:15 25.81033 103.04668 24687 ft 481 kts 15°
2026-04-26 02:15 25.84231 103.05810 25090 ft 483 kts 16°
2026-04-26 02:16 25.87420 103.06950 25479 ft 486 kts 16°
2026-04-26 02:16 25.90668 103.08113 25859 ft 488 kts 16°
2026-04-26 02:16 25.93907 103.09274 26229 ft 490 kts 16°
2026-04-26 02:16 25.97147 103.10435 26561 ft 493 kts 16°
2026-04-26 02:17 26.00413 103.11607 26869 ft 496 kts 16°
2026-04-26 02:17 26.03740 103.12798 27170 ft 498 kts 16°
2026-04-26 02:17 26.07043 103.13982 27499 ft 500 kts 16°
2026-04-26 02:17 26.10366 103.15175 27800 ft 502 kts 16°
2026-04-26 02:18 26.13701 103.16370 28082 ft 505 kts 16°
2026-04-26 02:18 26.17019 103.17557 28358 ft 507 kts 17°
2026-04-26 02:18 26.20420 103.18778 28665 ft 508 kts 17°
2026-04-26 02:18 26.23755 103.19975 28949 ft 510 kts 17°
2026-04-26 02:19 26.27173 103.21206 29196 ft 512 kts 17°
2026-04-26 02:19 26.30575 103.22430 29443 ft 514 kts 17°
2026-04-26 02:19 26.33960 103.23650 29696 ft 516 kts 17°
2026-04-26 02:19 26.37372 103.24881 29997 ft 516 kts 17°
2026-04-26 02:20 26.40790 103.26114 30399 ft 514 kts 16°
2026-04-26 02:20 26.44192 103.27344 30803 ft 512 kts 17°
2026-04-26 02:20 26.47562 103.28617 31180 ft 511 kts 19°
2026-04-26 02:20 26.50906 103.30088 31564 ft 510 kts 21°
2026-04-26 02:21 26.54095 103.31703 31947 ft 509 kts 24°
2026-04-26 02:21 26.57315 103.33466 32299 ft 508 kts 25°
2026-04-26 02:21 26.60481 103.35234 32630 ft 508 kts 25°
2026-04-26 02:21 26.63619 103.36993 32955 ft 507 kts 25°
2026-04-26 02:22 26.66749 103.38747 33316 ft 505 kts 25°
2026-04-26 02:22 26.69885 103.40503 33669 ft 504 kts 24°
2026-04-26 02:22 26.73042 103.42270 33950 ft 504 kts 24°
2026-04-26 02:22 26.76178 103.44022 34175 ft 505 kts 24°
2026-04-26 02:23 26.79314 103.45776 34399 ft 506 kts 24°
2026-04-26 02:23 26.82487 103.47549 34593 ft 507 kts 24°
2026-04-26 02:23 26.85659 103.49322 34770 ft 508 kts 24°
2026-04-26 02:23 26.88836 103.51100 34951 ft 509 kts 24°
2026-04-26 02:24 26.92030 103.52889 35141 ft 509 kts 24°
2026-04-26 02:24 26.95213 103.54674 35293 ft 511 kts 24°
2026-04-26 02:24 26.98383 103.56451 35287 ft 511 kts 24°
2026-04-26 02:25 27.04747 103.60023 35294 ft 511 kts 24°
2026-04-26 02:25 27.11138 103.63614 35308 ft 510 kts 24°
2026-04-26 02:26 27.17511 103.67198 35308 ft 509 kts 24°
2026-04-26 02:26 27.23839 103.70782 35308 ft 510 kts 24°
2026-04-26 02:27 27.30200 103.74372 35309 ft 510 kts 24°
2026-04-26 02:27 27.36641 103.77823 35313 ft 509 kts 22°
2026-04-26 02:28 27.43092 103.81136 35315 ft 508 kts 22°
2026-04-26 02:28 27.49545 103.84481 35297 ft 508 kts 22°
2026-04-26 02:29 27.55934 103.87836 35283 ft 508 kts 22°
2026-04-26 02:29 27.62376 103.91213 35250 ft 508 kts 22°
2026-04-26 02:30 27.68807 103.94582 35224 ft 513 kts 22°
2026-04-26 02:30 27.75308 103.97998 35192 ft 515 kts 22°
2026-04-26 02:31 27.81775 104.01414 35166 ft 513 kts 22°
2026-04-26 02:31 27.88261 104.04836 35146 ft 513 kts 22°
2026-04-26 02:32 27.94758 104.08266 35148 ft 514 kts 22°
2026-04-26 02:32 28.01197 104.11668 35121 ft 513 kts 21°
2026-04-26 02:33 28.07697 104.15105 35121 ft 513 kts 22°
2026-04-26 02:33 28.14166 104.18523 35128 ft 513 kts 21°
2026-04-26 02:34 28.20625 104.21934 35121 ft 513 kts 22°
2026-04-26 02:34 28.27086 104.25362 35123 ft 513 kts 21°
2026-04-26 02:35 28.33759 104.28231 35091 ft 509 kts 13°
2026-04-26 02:35 28.40638 104.29974 35077 ft 506 kts
2026-04-26 02:36 28.47629 104.30585 35055 ft 501 kts 356°
2026-04-26 02:36 28.54587 104.30301 35043 ft 500 kts 353°
2026-04-26 02:37 28.61549 104.29874 35049 ft 500 kts 353°
2026-04-26 02:37 28.68519 104.29474 35059 ft 500 kts 354°
2026-04-26 02:38 28.75452 104.29103 35075 ft 500 kts 354°
2026-04-26 02:38 28.82411 104.28729 35062 ft 500 kts 354°
2026-04-26 02:39 28.89400 104.28347 35038 ft 501 kts 353°
2026-04-26 02:39 28.96376 104.27965 35012 ft 501 kts 353°
2026-04-26 02:40 29.03336 104.27580 34992 ft 500 kts 353°
2026-04-26 02:40 29.10315 104.27191 34993 ft 500 kts 353°
2026-04-26 02:41 29.17335 104.26804 34993 ft 501 kts 354°
2026-04-26 02:41 29.24299 104.26556 34995 ft 503 kts 357°
2026-04-26 02:42 29.31320 104.27024 34998 ft 506 kts
2026-04-26 02:42 29.38329 104.28127 35005 ft 507 kts
2026-04-26 02:43 29.48841 104.29930 35010 ft 508 kts
2026-04-26 02:43 29.55813 104.31120 35014 ft 508 kts
2026-04-26 02:44 29.62798 104.32313 35014 ft 507 kts
2026-04-26 02:44 29.69810 104.33508 35014 ft 507 kts
2026-04-26 02:45 29.76781 104.34698 35006 ft 507 kts
2026-04-26 02:45 29.83768 104.35892 35009 ft 508 kts
2026-04-26 02:46 29.90773 104.37089 35002 ft 508 kts
2026-04-26 02:46 29.97778 104.38289 35000 ft 508 kts
2026-04-26 02:47 30.04810 104.39493 35000 ft 508 kts
2026-04-26 02:47 30.11877 104.40707 35012 ft 508 kts
2026-04-26 02:48 30.18858 104.41916 35011 ft 508 kts
2026-04-26 02:48 30.25841 104.43135 35013 ft 508 kts
2026-04-26 02:49 30.32851 104.44358 35008 ft 508 kts
2026-04-26 02:49 30.39867 104.45582 35016 ft 508 kts
2026-04-26 02:50 30.46884 104.46809 35011 ft 509 kts
2026-04-26 02:50 30.53834 104.48708 35014 ft 513 kts 18°
2026-04-26 02:51 30.60108 104.52763 35015 ft 520 kts 35°
2026-04-26 02:51 30.65170 104.58740 35013 ft 525 kts 52°
2026-04-26 02:52 30.68944 104.66006 35008 ft 528 kts 59°
2026-04-26 02:52 30.72513 104.73514 35015 ft 529 kts 59°
2026-04-26 02:53 30.76077 104.80957 35014 ft 529 kts 59°
2026-04-26 02:53 30.79693 104.88446 35014 ft 530 kts 59°
2026-04-26 02:54 30.83300 104.95901 35015 ft 530 kts 59°
2026-04-26 02:54 30.86905 105.03362 35013 ft 529 kts 59°
2026-04-26 02:55 30.90505 105.10825 35014 ft 530 kts 59°
2026-04-26 02:55 30.94128 105.18352 35010 ft 531 kts 59°
2026-04-26 02:56 30.97716 105.25816 35011 ft 531 kts 59°
2026-04-26 02:56 31.01330 105.33349 35005 ft 532 kts 59°
2026-04-26 02:57 31.04928 105.40865 35010 ft 532 kts 59°
2026-04-26 02:57 31.08506 105.48406 35008 ft 533 kts 59°
2026-04-26 02:58 31.12082 105.55955 35013 ft 534 kts 59°
2026-04-26 02:58 31.15702 105.63551 35012 ft 534 kts 59°
2026-04-26 02:59 31.19288 105.71149 35009 ft 535 kts 59°
2026-04-26 02:59 31.22859 105.78755 35007 ft 535 kts 59°
2026-04-26 03:00 31.26417 105.86335 35011 ft 536 kts 59°
2026-04-26 03:00 31.29997 105.93961 35015 ft 535 kts 59°
2026-04-26 03:01 31.33689 106.01533 35027 ft 534 kts 55°
2026-04-26 03:01 31.37945 106.08633 35025 ft 531 kts 49°
2026-04-26 03:02 31.42757 106.15112 35034 ft 530 kts 43°
2026-04-26 03:02 31.47850 106.21388 35041 ft 529 kts 43°
2026-04-26 03:03 31.52904 106.27703 35047 ft 530 kts 44°
2026-04-26 03:03 31.57903 106.33986 35047 ft 529 kts 43°
2026-04-26 03:04 31.62931 106.40314 35055 ft 528 kts 43°
2026-04-26 03:04 31.67991 106.46607 35057 ft 527 kts 43°
2026-04-26 03:05 31.73037 106.52861 35051 ft 527 kts 43°
2026-04-26 03:05 31.78045 106.59086 35061 ft 526 kts 43°
2026-04-26 03:06 31.83103 106.65385 35054 ft 526 kts 43°
2026-04-26 03:06 31.88094 106.71647 35055 ft 525 kts 43°
2026-04-26 03:07 31.93059 106.77872 35054 ft 523 kts 43°
2026-04-26 03:07 31.98074 106.84153 35070 ft 522 kts 43°
2026-04-26 03:08 32.03028 106.90353 35085 ft 522 kts 43°
2026-04-26 03:08 32.07994 106.96583 35099 ft 521 kts 43°
2026-04-26 03:09 32.12978 107.02781 35108 ft 521 kts 42°
2026-04-26 03:09 32.17968 107.08982 35110 ft 522 kts 43°
2026-04-26 03:10 32.22626 107.15634 35119 ft 527 kts 50°
2026-04-26 03:10 32.26562 107.22930 35120 ft 533 kts 57°
2026-04-26 03:11 32.29745 107.30850 35130 ft 539 kts 65°
2026-04-26 03:11 32.32346 107.39185 35140 ft 540 kts 66°
2026-04-26 03:12 32.34867 107.47498 35150 ft 542 kts 66°
2026-04-26 03:12 32.37408 107.55840 35150 ft 542 kts 66°
2026-04-26 03:13 32.39980 107.64258 35141 ft 542 kts 66°
2026-04-26 03:13 32.42531 107.72645 35124 ft 542 kts 66°
2026-04-26 03:14 32.45079 107.81039 35127 ft 543 kts 66°
2026-04-26 03:14 32.47624 107.89424 35149 ft 543 kts 65°
2026-04-26 03:15 32.51209 107.97135 35162 ft 530 kts 47°
2026-04-26 03:15 32.56419 108.03023 35173 ft 515 kts 28°
2026-04-26 03:16 32.62726 108.06762 35162 ft 499 kts 12°
2026-04-26 03:16 32.69370 108.09121 35147 ft 498 kts 10°
2026-04-26 03:17 32.76022 108.11416 35124 ft 499 kts 10°
2026-04-26 03:17 32.82659 108.13741 35125 ft 498 kts 10°
2026-04-26 03:18 32.89308 108.16089 35120 ft 497 kts 10°
2026-04-26 03:18 32.95931 108.18436 35119 ft 498 kts 10°
2026-04-26 03:19 33.02575 108.20797 35116 ft 498 kts 10°
2026-04-26 03:19 33.09233 108.23164 35125 ft 498 kts 10°
2026-04-26 03:20 33.15844 108.25514 35147 ft 497 kts 10°
2026-04-26 03:20 33.22458 108.28078 35142 ft 504 kts 19°
2026-04-26 03:21 33.25502 108.30187 35177 ft 513 kts 30°
2026-04-26 03:21 33.28201 108.33005 35191 ft 524 kts 41°
2026-04-26 03:21 33.30439 108.36479 35186 ft 534 kts 53°
2026-04-26 03:21 33.32082 108.40486 35194 ft 544 kts 66°
2026-04-26 03:22 33.33023 108.44867 35207 ft 551 kts 78°
2026-04-26 03:22 33.33450 108.49474 35213 ft 553 kts 81°
2026-04-26 03:22 33.34087 108.58623 35212 ft 555 kts 82°
2026-04-26 03:23 33.34740 108.67750 35196 ft 555 kts 81°
2026-04-26 03:23 33.35437 108.76926 35177 ft 554 kts 81°
2026-04-26 03:24 33.36146 108.86099 35165 ft 555 kts 81°
2026-04-26 03:24 33.36853 108.95252 35155 ft 555 kts 81°
2026-04-26 03:25 33.37552 109.04433 35150 ft 555 kts 81°
2026-04-26 03:25 33.38243 109.13563 35168 ft 554 kts 81°
2026-04-26 03:26 33.38927 109.22694 35176 ft 554 kts 81°
2026-04-26 03:26 33.39609 109.31876 35195 ft 554 kts 81°
2026-04-26 03:27 33.40284 109.41031 35177 ft 554 kts 81°
2026-04-26 03:27 33.40953 109.50213 35162 ft 554 kts 81°
2026-04-26 03:28 33.41634 109.59338 35134 ft 553 kts 79°
2026-04-26 03:28 33.42520 109.68427 35130 ft 552 kts 79°
2026-04-26 03:29 33.43438 109.77557 35116 ft 553 kts 79°
2026-04-26 03:29 33.44331 109.86665 35104 ft 554 kts 79°
2026-04-26 03:30 33.45206 109.95757 35106 ft 554 kts 79°
2026-04-26 03:30 33.46081 110.04936 35099 ft 555 kts 79°
2026-04-26 03:31 33.46946 110.14064 35094 ft 553 kts 79°
2026-04-26 03:31 33.47803 110.23174 35092 ft 553 kts 79°
2026-04-26 03:32 33.48643 110.32170 35093 ft 554 kts 79°
2026-04-26 03:32 33.49982 110.41108 35091 ft 543 kts 65°
2026-04-26 03:33 33.51479 110.45225 35078 ft 533 kts 54°
2026-04-26 03:33 33.53480 110.48862 35079 ft 523 kts 44°
2026-04-26 03:33 33.55925 110.52007 35092 ft 512 kts 34°
2026-04-26 03:33 33.58721 110.54596 35092 ft 502 kts 25°
2026-04-26 03:34 33.64826 110.58357 35097 ft 495 kts 18°
2026-04-26 03:34 33.71085 110.61865 35123 ft 494 kts 18°
2026-04-26 03:35 33.77278 110.65376 35145 ft 494 kts 18°
2026-04-26 03:35 33.83486 110.68957 35140 ft 494 kts 19°
2026-04-26 03:36 33.89685 110.72540 35122 ft 493 kts 19°
2026-04-26 03:36 33.95857 110.76100 35115 ft 494 kts 19°
2026-04-26 03:37 34.02069 110.79684 35097 ft 494 kts 19°
2026-04-26 03:37 34.08239 110.83248 35100 ft 494 kts 19°
2026-04-26 03:38 34.14469 110.86842 35105 ft 493 kts 18°
2026-04-26 03:38 34.20655 110.90414 35109 ft 494 kts 19°
2026-04-26 03:39 34.26834 110.93996 35108 ft 494 kts 18°
2026-04-26 03:39 34.33025 110.97623 35090 ft 496 kts 20°
2026-04-26 03:40 34.38887 111.02089 35093 ft 506 kts 30°
2026-04-26 03:40 34.44199 111.07822 35084 ft 518 kts 39°
2026-04-26 03:41 34.48705 111.14680 35091 ft 529 kts 50°
2026-04-26 03:41 34.52604 111.22262 35101 ft 530 kts 52°
2026-04-26 03:42 34.56427 111.29910 35096 ft 531 kts 51°
2026-04-26 03:42 34.60239 111.37508 35073 ft 529 kts 51°
2026-04-26 03:43 34.64063 111.45107 35051 ft 529 kts 51°
2026-04-26 03:43 34.67892 111.52718 35044 ft 529 kts 51°
2026-04-26 03:44 34.71697 111.60303 35030 ft 528 kts 51°
2026-04-26 03:44 34.75513 111.67932 35026 ft 528 kts 51°
2026-04-26 03:45 34.79316 111.75575 35021 ft 527 kts 51°
2026-04-26 03:45 34.83105 111.83178 35017 ft 528 kts 51°
2026-04-26 03:46 34.86886 111.90769 35016 ft 528 kts 51°
2026-04-26 03:47 34.92612 112.02208 35021 ft 527 kts 51°
2026-04-26 03:47 34.96433 112.09813 35019 ft 527 kts 51°
2026-04-26 03:48 35.00232 112.17394 35012 ft 526 kts 50°
2026-04-26 03:48 35.04021 112.24961 35013 ft 526 kts 51°
2026-04-26 03:49 35.07822 112.32575 35018 ft 527 kts 50°
2026-04-26 03:49 35.11637 112.40221 35021 ft 527 kts 50°
2026-04-26 03:50 35.15439 112.47815 35020 ft 526 kts 50°
2026-04-26 03:50 35.19246 112.55477 35030 ft 528 kts 51°
2026-04-26 03:51 35.23056 112.63127 35034 ft 527 kts 50°
2026-04-26 03:51 35.26875 112.70741 35051 ft 528 kts 51°
2026-04-26 03:52 35.30718 112.78435 35051 ft 528 kts 51°
2026-04-26 03:52 35.34516 112.86044 35045 ft 529 kts 51°
2026-04-26 03:53 35.38359 112.93751 35038 ft 529 kts 50°
2026-04-26 03:53 35.42184 113.01438 35028 ft 529 kts 50°
2026-04-26 03:54 35.45982 113.09084 35028 ft 528 kts 51°
2026-04-26 03:54 35.49790 113.16766 35054 ft 529 kts 51°
2026-04-26 03:55 35.53620 113.24517 35075 ft 528 kts 50°
2026-04-26 03:55 35.57388 113.32149 35090 ft 527 kts 51°
2026-04-26 03:56 35.61189 113.39877 35096 ft 526 kts 50°
2026-04-26 03:56 35.65001 113.47456 35107 ft 526 kts 50°
2026-04-26 03:57 35.68879 113.55097 35102 ft 525 kts 49°
2026-04-26 03:57 35.72737 113.62721 35068 ft 527 kts 49°
2026-04-26 03:58 35.76577 113.70360 35045 ft 529 kts 50°
2026-04-26 03:58 35.80423 113.78052 35023 ft 528 kts 50°
2026-04-26 03:59 35.84258 113.85720 35011 ft 528 kts 50°
2026-04-26 03:59 35.88117 113.93434 35002 ft 530 kts 50°
2026-04-26 04:00 35.91983 114.01181 34988 ft 530 kts 50°
2026-04-26 04:00 35.95820 114.08887 34973 ft 530 kts 50°
2026-04-26 04:01 35.99685 114.16663 34968 ft 531 kts 50°
2026-04-26 04:01 36.03535 114.24429 34961 ft 530 kts 50°
2026-04-26 04:02 36.07361 114.32166 34957 ft 529 kts 50°
2026-04-26 04:02 36.11197 114.39926 34963 ft 529 kts 50°
2026-04-26 04:03 36.15035 114.47656 34961 ft 530 kts 50°
2026-04-26 04:03 36.18866 114.55431 34964 ft 529 kts 50°
2026-04-26 04:04 36.22659 114.63171 34963 ft 527 kts 50°
2026-04-26 04:04 36.26436 114.70911 34958 ft 529 kts 50°
2026-04-26 04:05 36.30210 114.78762 34956 ft 529 kts 51°
2026-04-26 04:05 36.33798 114.86758 34963 ft 534 kts 55°
2026-04-26 04:06 36.36764 114.95206 34958 ft 542 kts 62°
2026-04-26 04:06 36.39039 115.04192 34958 ft 550 kts 67°
2026-04-26 04:07 36.40990 115.13305 34960 ft 550 kts 68°
2026-04-26 04:07 36.43212 115.22379 34960 ft 546 kts 62°
2026-04-26 04:08 36.46075 115.30963 34961 ft 539 kts 58°
2026-04-26 04:08 36.49121 115.39427 34959 ft 538 kts 57°
2026-04-26 04:09 36.52154 115.47902 34963 ft 539 kts 58°
2026-04-26 04:09 36.55170 115.56405 34965 ft 538 kts 58°
2026-04-26 04:10 36.58173 115.64900 34924 ft 540 kts 58°
2026-04-26 04:10 36.61182 115.73469 34963 ft 540 kts 58°
2026-04-26 04:11 36.64167 115.81992 34980 ft 541 kts 58°
2026-04-26 04:11 36.67176 115.90601 34984 ft 541 kts 58°
2026-04-26 04:12 36.70158 115.99133 34986 ft 542 kts 58°
2026-04-26 04:12 36.73160 116.07734 34996 ft 542 kts 59°
2026-04-26 04:13 36.76122 116.16358 34983 ft 544 kts 61°
2026-04-26 04:13 36.78521 116.25320 34991 ft 551 kts 68°
2026-04-26 04:14 36.80101 116.34692 34994 ft 559 kts 76°
2026-04-26 04:14 36.80812 116.44420 34993 ft 564 kts 82°
2026-04-26 04:15 36.81113 116.54145 34999 ft 565 kts 83°
2026-04-26 04:15 36.81404 116.63905 35010 ft 563 kts 83°
2026-04-26 04:16 36.81709 116.73608 34993 ft 562 kts 83°
2026-04-26 04:16 36.81856 116.78408 34989 ft 550 kts 83°
2026-04-26 04:16 36.82004 116.83196 34640 ft 548 kts 83°
2026-04-26 04:16 36.82154 116.87912 34188 ft 547 kts 83°
2026-04-26 04:17 36.82303 116.92615 33674 ft 547 kts 83°
2026-04-26 04:17 36.82452 116.97353 33158 ft 547 kts 83°
2026-04-26 04:17 36.82601 117.02067 32651 ft 547 kts 84°
2026-04-26 04:17 36.82745 117.06833 32132 ft 549 kts 84°
2026-04-26 04:18 36.82883 117.11591 31605 ft 548 kts 84°
2026-04-26 04:18 36.83011 117.16271 31103 ft 549 kts 85°
2026-04-26 04:18 36.82993 117.21062 30565 ft 549 kts 89°
2026-04-26 04:18 36.82759 117.25839 30041 ft 551 kts 93°
2026-04-26 04:19 36.82343 117.30573 29506 ft 552 kts 95°
2026-04-26 04:19 36.81885 117.35333 28980 ft 552 kts 95°
2026-04-26 04:19 36.81417 117.40078 28461 ft 553 kts 95°
2026-04-26 04:19 36.80951 117.44820 27944 ft 553 kts 95°
2026-04-26 04:20 36.80491 117.49539 27477 ft 550 kts 95°
2026-04-26 04:20 36.80032 117.54248 27086 ft 546 kts 95°
2026-04-26 04:20 36.79585 117.58873 26603 ft 537 kts 95°
2026-04-26 04:20 36.79138 117.63491 26094 ft 529 kts 95°
2026-04-26 04:21 36.78704 117.67972 25581 ft 522 kts 96°
2026-04-26 04:21 36.78269 117.72442 25066 ft 515 kts 96°
2026-04-26 04:21 36.77840 117.76851 24546 ft 509 kts 96°
2026-04-26 04:21 36.77416 117.81177 24022 ft 506 kts 96°
2026-04-26 04:22 36.76991 117.85504 23483 ft 502 kts 96°
2026-04-26 04:22 36.76571 117.89761 22968 ft 497 kts 96°
2026-04-26 04:22 36.76144 117.94055 22441 ft 491 kts 96°
2026-04-26 04:22 36.75732 117.98200 21939 ft 486 kts 96°
2026-04-26 04:23 36.75315 118.02386 21438 ft 480 kts 96°
2026-04-26 04:23 36.74912 118.06426 20937 ft 474 kts 96°
2026-04-26 04:23 36.74503 118.10515 20347 ft 469 kts 96°
2026-04-26 04:23 36.74104 118.14483 19781 ft 464 kts 96°
2026-04-26 04:24 36.73700 118.18467 19196 ft 459 kts 96°
2026-04-26 04:24 36.73306 118.22351 18621 ft 454 kts 96°
2026-04-26 04:24 36.72929 118.26222 18060 ft 448 kts 95°
2026-04-26 04:24 36.72566 118.30065 17463 ft 443 kts 95°
2026-04-26 04:25 36.72210 118.33863 16878 ft 439 kts 95°
2026-04-26 04:25 36.71862 118.37579 16290 ft 435 kts 95°
2026-04-26 04:25 36.71514 118.41271 15713 ft 430 kts 95°
2026-04-26 04:25 36.71167 118.44952 15136 ft 426 kts 95°
2026-04-26 04:26 36.70820 118.48607 14555 ft 423 kts 95°
2026-04-26 04:26 36.70477 118.52212 13983 ft 419 kts 95°
2026-04-26 04:26 36.70138 118.55763 13413 ft 415 kts 95°
2026-04-26 04:26 36.69797 118.59315 12836 ft 412 kts 96°
2026-04-26 04:27 36.69459 118.62846 12254 ft 408 kts 96°
2026-04-26 04:27 36.69125 118.66310 11690 ft 404 kts 96°
2026-04-26 04:27 36.68792 118.69770 11126 ft 400 kts 96°
2026-04-26 04:27 36.68462 118.73191 10826 ft 397 kts 96°
2026-04-26 04:28 36.68138 118.76522 10755 ft 381 kts 96°
2026-04-26 04:28 36.67826 118.79713 10753 ft 363 kts 96°
2026-04-26 04:28 36.67525 118.82797 10758 ft 357 kts 96°
2026-04-26 04:28 36.67227 118.85852 10750 ft 357 kts 96°
2026-04-26 04:29 36.66927 118.88911 10746 ft 354 kts 96°
2026-04-26 04:29 36.66633 118.91901 10746 ft 338 kts 96°
2026-04-26 04:29 36.66356 118.94709 10740 ft 323 kts 96°
2026-04-26 04:29 36.66086 118.97427 10745 ft 307 kts 96°
2026-04-26 04:30 36.65831 119.00005 10748 ft 293 kts 96°
2026-04-26 04:30 36.65588 119.02447 10753 ft 279 kts 96°
2026-04-26 04:30 36.65355 119.04799 10754 ft 275 kts 96°
2026-04-26 04:30 36.65109 119.07282 10748 ft 295 kts 95°
2026-04-26 04:31 36.64962 119.09836 10753 ft 298 kts 89°
2026-04-26 04:31 36.65046 119.12400 10751 ft 297 kts 82°
2026-04-26 04:31 36.65375 119.14926 10748 ft 294 kts 75°
2026-04-26 04:31 36.65904 119.17309 10750 ft 279 kts 70°
2026-04-26 04:32 36.66482 119.19557 10644 ft 271 kts 69°
2026-04-26 04:32 36.67068 119.21800 10440 ft 269 kts 69°
2026-04-26 04:32 36.67638 119.23994 10240 ft 269 kts 70°
2026-04-26 04:32 36.68209 119.26225 10039 ft 268 kts 70°
2026-04-26 04:33 36.68762 119.28410 9845 ft 267 kts 70°
2026-04-26 04:33 36.69320 119.30626 9649 ft 266 kts 70°
2026-04-26 04:33 36.69871 119.32815 9455 ft 265 kts 70°
2026-04-26 04:33 36.70342 119.35033 9244 ft 265 kts 81°
2026-04-26 04:34 36.70441 119.37315 9056 ft 265 kts 88°
2026-04-26 04:34 36.70438 119.39596 8859 ft 265 kts 89°
2026-04-26 04:34 36.70440 119.41897 8662 ft 263 kts 88°
2026-04-26 04:34 36.70464 119.44171 8463 ft 262 kts 88°
2026-04-26 04:35 36.70507 119.46422 8268 ft 261 kts 87°
2026-04-26 04:35 36.70559 119.48653 8075 ft 259 kts 87°
2026-04-26 04:35 36.70618 119.50896 7881 ft 258 kts 86°
2026-04-26 04:35 36.70680 119.53134 7684 ft 258 kts 86°
2026-04-26 04:36 36.70744 119.55362 7488 ft 257 kts 87°
2026-04-26 04:36 36.70807 119.57574 7295 ft 255 kts 86°
2026-04-26 04:36 36.70870 119.59775 7097 ft 255 kts 87°
2026-04-26 04:36 36.70933 119.61973 6900 ft 254 kts 87°
2026-04-26 04:37 36.70995 119.64157 6705 ft 253 kts 87°
2026-04-26 04:37 36.71057 119.66340 6506 ft 251 kts 88°
2026-04-26 04:37 36.71117 119.68501 6314 ft 250 kts 88°
2026-04-26 04:37 36.71176 119.70656 6120 ft 249 kts 88°
2026-04-26 04:38 36.71236 119.72816 5924 ft 248 kts 88°
2026-04-26 04:38 36.71296 119.74957 5732 ft 247 kts 88°
2026-04-26 04:38 36.71355 119.77093 5535 ft 246 kts 88°
2026-04-26 04:38 36.71413 119.79221 5337 ft 245 kts 88°
2026-04-26 04:39 36.71471 119.81336 5144 ft 245 kts 88°
2026-04-26 04:39 36.71527 119.83446 4950 ft 244 kts 88°
2026-04-26 04:39 36.71583 119.85550 4758 ft 243 kts 89°
2026-04-26 04:39 36.71639 119.87645 4569 ft 242 kts 89°
2026-04-26 04:40 36.71694 119.89754 4375 ft 242 kts 89°
2026-04-26 04:40 36.71745 119.91819 4178 ft 241 kts 91°
2026-04-26 04:40 36.71372 119.93809 3923 ft 237 kts 127°
2026-04-26 04:40 36.70135 119.95063 3758 ft 228 kts 157°
2026-04-26 04:41 36.68663 119.95801 3577 ft 230 kts 161°
2026-04-26 04:41 36.67157 119.96522 3385 ft 230 kts 160°
2026-04-26 04:41 36.65698 119.97304 3190 ft 229 kts 153°
2026-04-26 04:41 36.64353 119.98370 3013 ft 229 kts 149°
2026-04-26 04:42 36.62971 119.99343 2977 ft 227 kts 157°
2026-04-26 04:42 36.61505 120.00080 2972 ft 227 kts 162°
2026-04-26 04:42 36.60017 120.00706 2960 ft 220 kts 163°
2026-04-26 04:42 36.58608 120.01266 2957 ft 208 kts 164°
2026-04-26 04:43 36.57237 120.01804 2966 ft 206 kts 164°
2026-04-26 04:43 36.55852 120.02345 2968 ft 207 kts 164°
2026-04-26 04:43 36.54487 120.02882 2961 ft 201 kts 164°
2026-04-26 04:43 36.53203 120.03389 2966 ft 188 kts 164°
2026-04-26 04:44 36.51964 120.03876 2779 ft 184 kts 164°
2026-04-26 04:44 36.50745 120.04356 2538 ft 183 kts 164°
2026-04-26 04:44 36.49531 120.04833 2298 ft 182 kts 164°
2026-04-26 04:44 36.48314 120.05312 2059 ft 182 kts 164°
2026-04-26 04:45 36.47121 120.05782 1825 ft 180 kts 163°
2026-04-26 04:45 36.45926 120.06252 1594 ft 179 kts 163°
2026-04-26 04:45 36.44783 120.06702 1362 ft 169 kts 163°
2026-04-26 04:45 36.43662 120.07143 1154 ft 167 kts 163°
2026-04-26 04:46 36.42561 120.07575 945 ft 164 kts 163°
2026-04-26 04:46 36.41521 120.07984 728 ft 150 kts 162°
2026-04-26 04:46 36.40560 120.08362 533 ft 137 kts 162°
2026-04-26 04:46 36.39664 120.08714 373 ft 134 kts 162°
2026-04-26 04:47 36.38782 120.09057 203 ft 134 kts 162°
2026-04-26 04:47 36.37896 120.09393 63 ft 132 kts 160°
2026-04-26 04:47 36.37033 120.09764 36 ft 128 kts 163°
2026-04-26 04:47 36.36384 120.10012 40 ft 43 kts 165°
2026-04-26 04:48 36.35875 120.10136 37 ft 33 kts 181°
2026-04-26 04:48 36.35741 120.10071 38 ft 11 kts 242°
2026-04-26 04:48 36.35763 120.10024 38 ft 10 kts 342°
2026-04-26 04:49 36.35852 120.09995 40 ft 16 kts 341°
2026-04-26 04:49 36.35980 120.09937 41 ft 23 kts 338°
2026-04-26 04:49 36.36153 120.09869 42 ft 29 kts 342°
2026-04-26 04:49 36.36357 120.09788 40 ft 25 kts 343°
2026-04-26 04:50 36.36540 120.09718 39 ft 25 kts 341°
2026-04-26 04:50 36.36595 120.09634 38 ft 12 kts 246°
2026-04-26 04:50 36.36578 120.09523 37 ft 16 kts 281°
2026-04-26 04:50 36.36615 120.09435 35 ft 6 kts 284°
2026-04-26 04:51 36.36613 120.09370 34 ft 0 kts 267°